This is the latest recevied weather packets stored in our database for station/object KQ4WWD. If no packets are shown the sender has not sent any weather packets the latest 10 day(s).
| Time | Temp. | Humidity | Pressure | Rain* | Wind** | Luminosity | Snow |
|---|---|---|---|---|---|---|---|
| 1788274021 | 29.44° C | 84% | 1017.4 hPa | 0 mm | - | 648 W/m² | - |
| 1788273715 | 29.44° C | 84% | 1017.5 hPa | 0 mm | - | 720 W/m² | - |
| 1788273411 | 30° C | 84% | 1017.1 hPa | 0 mm | - | 599 W/m² | - |
| 1788273108 | 30° C | 84% | 1017.3 hPa | 0 mm | - | 595 W/m² | - |
| 1788272804 | 29.44° C | 85% | 1017.5 hPa | 0 mm | - | 582 W/m² | - |
| 1788272503 | 28.89° C | 86% | 1017 hPa | 0 mm | - | 559 W/m² | - |
| 1788272203 | 28.89° C | 87% | 1017.1 hPa | 0 mm | - | 563 W/m² | - |
| 1788271902 | 28.33° C | 87% | 1017.1 hPa | 0 mm | - | 553 W/m² | - |
| 1788271601 | 28.33° C | 87% | 1016.9 hPa | 0 mm | - | 560 W/m² | - |
| 1788271301 | 28.33° C | 87% | 1017 hPa | 0 mm | - | 531 W/m² | - |
| 1788270995 | 27.78° C | 88% | 1017.2 hPa | 0 mm | - | 511 W/m² | - |
| 1788270691 | 27.22° C | 90% | 1017 hPa | 0 mm | - | 437 W/m² | - |
| 1788270387 | 27.22° C | 92% | 1017 hPa | 0 mm | - | 442 W/m² | - |
| 1788270082 | 26.67° C | 93% | 1017 hPa | 0 mm | - | 431 W/m² | - |
| 1788269780 | 26.67° C | 94% | 1017 hPa | 0 mm | - | 368 W/m² | - |
| 1788269479 | 26.11° C | 95% | 1017.2 hPa | 0 mm | - | 430 W/m² | - |
| 1788269174 | 26.11° C | 95% | 1017.3 hPa | 0 mm | - | 204 W/m² | - |
| 1788268874 | 25.56° C | 95% | 1017.2 hPa | 0 mm | - | 188 W/m² | - |
| 1788268573 | 25.56° C | 95% | 1017.1 hPa | 0 mm | - | 442 W/m² | - |
| 1788268268 | 25.56° C | 95% | 1017 hPa | 0 mm | - | 246 W/m² | - |
| 1788267963 | 25.56° C | 96% | 1017.2 hPa | 0 mm | - | 172 W/m² | - |
| 1788267661 | 25.56° C | 96% | 1017.1 hPa | 0 mm | - | 131 W/m² | - |
| 1788267360 | 25° C | 96% | 1017.1 hPa | 0 mm | - | 154 W/m² | - |
| 1788267055 | 25.56° C | 96% | 1017.1 hPa | 0 mm | - | 144 W/m² | - |
| 1788266750 | 25° C | 96% | 1016.9 hPa | 0 mm | - | 124 W/m² | - |
* Rain latest hour (hover to see other rain measurements)
** Current wind speed in m/s (hover to see current wind gust speed)